LFKBLFMN

Guest
Details From LFKB - Bastia Poretta
To LFMN - Nice/Cote d'Azur
Flight Number -
Tags decoded
Created
Modified
Stats Distance 120 nm / 222 km
Max Altitude 0 ft / 0 m
Waypoints 3
Social Downloads 1
Likes 0
Share VATSIM

Download

Looking for another format? Having issues loading an existing format? Contact us
Advertisement - Login to hide

Notes

Requested: LFKB SODRI LFMN

Route

LFKB SODRI LFMN

ID Type Via Altitude Latitude Longitude Leg Dist Tot Dist Heading (true) Name
O LFKB APT - 0 ft / 0 m 42.55251˚ 9.48371˚ - 0 nm - Bastia Poretta
SODRI FIX - 0 ft / 0 m 43.01306˚ 8.37194˚ 56 nm 56 nm 300° / 299° -
O LFMN APT - 0 ft / 0 m 43.65798˚ 7.21536˚ 63 nm 119 nm 308° / 307° Nice/Cote d'Azur

Altitude Profile

Advertisement - Login to hide

LFKB

Details ICAO LFKB (BIA)
Name Bastia Poretta
Region France
Timezone Europe/Paris (UTC+2.0)
Stats Elevation 25 ft / 8 m (AMSL)
Location 42.552508° 9.483709°
Runways 1
Magnetic Variation 2.533° E

METAR

LFKB 250000Z AUTO 20004KT CAVOK 16/15 Q1017 TEMPO BKN014

Decode

TAF

TAF LFKB 242000Z 2421/2521 23003KT 9999 FEW025 PROB30 2500/2505 BKN014 TX24/2513Z TN14/2504Z

Decode

Departure Runways

ID Width Length Bearing (true) Bearing (mag) Surface Threshold Offset Overrun Length
16 148 ft / 45 m 8,273 ft / 2,522 m 162.83° 160.30° Concrete 0 ft / 0 m 131 ft / 40 m
34 148 ft / 45 m 8,273 ft / 2,522 m 342.84° 340.31° Concrete 0 ft / 0 m 0 ft / 0 m

LFMN

Details ICAO LFMN (NCE)
Name Nice/Cote d'Azur
Region France
Timezone Unknown (UTC+0.0)
Stats Elevation 12 ft / 4 m (AMSL)
Location 43.657981° 7.215362°
Runways 2
Magnetic Variation 2.066° E

METAR

LFMN 250000Z 08008KT 9999 BKN014 19/17 Q1017 TEMPO BKN012

Decode

TAF

TAF AMD LFMN 242200Z 2422/2603 33010KT 9999 FEW013 TEMPO 2422/2507 BKN012 BECMG 2507/2509 14006KT CAVOK TEMPO 2516/2520 21010KT BECMG 2520/2522 33010KT PROB30 TEMPO 2600/2603 BKN010

Decode

Destination Runways

ID Width Length Bearing (true) Bearing (mag) Surface Threshold Offset Overrun Length
04L 148 ft / 45 m 8,427 ft / 2,569 m 44.85° 42.78° Asphalt 0 ft / 0 m 131 ft / 40 m
04R 148 ft / 45 m 9,720 ft / 2,963 m 44.60° 42.53° Asphalt 0 ft / 0 m 427 ft / 130 m
22L 148 ft / 45 m 9,720 ft / 2,963 m 224.62° 222.55° Asphalt 0 ft / 0 m 525 ft / 160 m
22R 148 ft / 45 m 8,427 ft / 2,569 m 224.87° 222.80° Asphalt 0 ft / 0 m 492 ft / 150 m

Approach Navaids

Runway Type Ident Frequency Range Bearing (true) Bearing (mag) Slope Elevation
04L Localiser NI 109.95 MHz 27 nm / 50 km 44.90° 42.83° - 12 ft / 4 m (AMSL)
04L Glidescope NI 109.95 MHz 27 nm / 50 km 44.90° 42.83° 3.00° 12 ft / 4 m (AMSL)
04L DME NI 109.95 MHz 27 nm / 50 km - - - 12 ft / 4 m (AMSL)
04R Localiser NA 110.70 MHz 27 nm / 50 km 42.00° 39.93° - 12 ft / 4 m (AMSL)
04R Glidescope NA 110.70 MHz 27 nm / 50 km 42.00° 39.93° 3.00° 12 ft / 4 m (AMSL)
04R DME NA 110.70 MHz 27 nm / 50 km - - - 12 ft / 4 m (AMSL)

Popular Alternatives